User: anonymous   Login
Location: Montr�al
(45.5000°N, 73.5830°W)
Time: 09:54:51
(UTC-04:00)
Language:

Cosmos 1151 Rocket - Orbit

View from above orbital plane
View from above orbital plane
View from above satellite
View from above satellite

Ground track
Ground track

The orbit data is extracted from the following two-line orbital elements,

1 11672U 80005B   17173.82904402 +.00000082 +00000-0 +62760-5 0  9994
2 11672 082.5165 074.0575 0015392 301.5065 058.4648 14.87868939003128
Epoch (UTC): 22 June 2017 19:53:49
Eccentricity: 0.0015392
inclination: 82.5165°
perigee height: 594 km
apogee height: 615 km
right ascension of ascending node: 74.0575°
argument of perigee: 301.5065°
revolutions per day: 14.87868939
mean anomaly at epoch: 58.4648°
orbit number at epoch: 312

The dashed part of the orbit path shows where the satellite is in the earth's shadow,  

DLR